This is the latest recevied weather packets stored in our database for station/object M0JUI-1. If no packets are shown the sender has not sent any weather packets the latest 10 day(s).
| Time | Temp. | Humidity | Pressure | Rain* | Wind** | Luminosity | Snow |
|---|---|---|---|---|---|---|---|
| 1778159416 | 14.44° C | 83% | 1015.4 hPa | 0 mm | - | 399 W/m² | - |
| 1778159116 | 13.89° C | 85% | 1015.7 hPa | 0 mm | - | 376 W/m² | - |
| 1778158809 | 14.44° C | 85% | 1015.7 hPa | 0 mm | - | 362 W/m² | - |
| 1778158504 | 14.44° C | 88% | 1015.7 hPa | 0 mm | - | 346 W/m² | - |
| 1778158209 | 14.44° C | 86% | 1015.7 hPa | 0 mm | - | 367 W/m² | - |
| 1778157891 | 13.89° C | 88% | 1015.7 hPa | 0 mm | - | 370 W/m² | - |
| 1778157592 | 14.44° C | 86% | 1015.8 hPa | 0 mm | - | 342 W/m² | - |
| 1778157291 | 14.44° C | 91% | 1015.7 hPa | 0 mm | - | 350 W/m² | - |
| 1778156979 | 14.44° C | 91% | 1015.7 hPa | 0 mm | - | 351 W/m² | - |
| 1778156679 | 13.33° C | 93% | 1015.7 hPa | 0 mm | - | 361 W/m² | - |
| 1778156379 | 13.89° C | 98% | 1015.8 hPa | 0 mm | - | 375 W/m² | - |
| 1778156079 | 13.89° C | 99% | 1015.8 hPa | 0 mm | - | 382 W/m² | - |
| 1778155779 | 13.89° C | 99% | 1015.8 hPa | 0 mm | - | 383 W/m² | - |
| 1778155479 | 13.89° C | 99% | 1015.9 hPa | 0 mm | - | 389 W/m² | - |
| 1778155179 | 13.89° C | 99% | 1016 hPa | 0 mm | - | 424 W/m² | - |
| 1778154867 | 13.33° C | 99% | 1015.9 hPa | 0 mm | - | 441 W/m² | - |
| 1778154567 | 13.33° C | 99% | 1015.9 hPa | 0 mm | - | 393 W/m² | - |
| 1778154268 | 13.33° C | 99% | 1016.1 hPa | 0 mm | - | 384 W/m² | - |
| 1778153967 | 12.78° C | 99% | 1016.1 hPa | 0 mm | - | 386 W/m² | - |
| 1778153667 | 12.78° C | 99% | 1016 hPa | 0 mm | - | 362 W/m² | - |
| 1778153368 | 12.78° C | 99% | 1016.1 hPa | 0 mm | - | 359 W/m² | - |
| 1778153067 | 12.78° C | 99% | 1016.2 hPa | 0 mm | - | 344 W/m² | - |
| 1778152768 | 12.78° C | 1% | 1016.1 hPa | 0 mm | - | 336 W/m² | - |
| 1778152467 | 12.78° C | 1% | 1016.3 hPa | 0 mm | - | 346 W/m² | - |
| 1778152168 | 12.22° C | 1% | 1016.3 hPa | 0 mm | - | 346 W/m² | - |
* Rain latest hour (hover to see other rain measurements)
** Current wind speed in m/s (hover to see current wind gust speed)